Regional Weather Roundup
Issued by NWS

Home | Current Version | Previous Version | Graphics & Text | Print | Product List | Glossary Off
Versions: 1 2 3 4 5 6 7 8 9 10 11 12 13 14 15 16 17 18 19 20 21 22 23 24 25 26 27 28 29 30 31 32 33 34 35 36 37 38 39 40 41 42 43 44 45 46 47 48 49 50

000
ASUS43 KTOP 312108
RWRKS

WEATHER ROUNDUP FOR KANSAS
NATIONAL WEATHER SERVICE GOODLAND KS
400 PM CDT FRI OCT 31 2014

NOTE:  "FAIR" INDICATES FEW OR NO CLOUDS BELOW 12,000 FEET WITH NO
SIGNIFICANT WEATHER AND/OR OBSTRUCTIONS TO VISIBILITY.

KSZ001>006-013>018-027>032-041>047-312200-
NORTHWEST KANSAS

CITY           SKY/WX    TMP DP  RH WIND       PRES   REMARKS
GOODLAND       SUNNY     48  26  42 SE15G25   30.34F
HAYS           SUNNY     45  14  29 E8        30.44S
HILL CITY      SUNNY     46  16  30 E10G18    30.43F
RUSSELL        SUNNY     45  16  31 E9        30.43F
$$

KSZ061>065-074>080-084>089-312200-
SOUTHWEST KANSAS

CITY           SKY/WX    TMP DP  RH WIND       PRES   REMARKS
DODGE CITY     SUNNY     49  21  33 E7        30.41F
ELKHART          N/A     57  28  33 SE13        N/A
GARDEN CITY    SUNNY     49  22  34 E12       30.37F
GREAT BEND     SUNNY     46  18  31 NE12      30.44F
LIBERAL        SUNNY     54  27  35 E10G18    30.39F
PRATT          SUNNY     46  16  29 NE9       30.43F
$$

KSZ066>073-081>083-090>101-312200-
SOUTHEAST KANSAS

CITY           SKY/WX    TMP DP  RH WIND       PRES   REMARKS
CHANUTE        SUNNY     48  18  30 N16G23    30.42S
COFFEYVILLE    SUNNY     50  19  29 N16G22    30.41F
HUTCHINSON     SUNNY     48  17  29 NE9G20    30.44F
MEDICINE LODGE   N/A     52  19  27 NE12      30.41F
NEWTON         SUNNY     46  16  29 NE10G20   30.45S
PARSONS        SUNNY     50  20  30 N14       30.43S
WICHITA INTL   MOSUNNY   51  14  22 NE12      30.43F
WICHITA JABRA  SUNNY     50  15  24 N10G21    30.42F
WICHITA MCCONL SUNNY     49  12  22 NE15      30.42F
WINFIELD       SUNNY     51  16  24 N15       30.42F
$$

KSZ007>012-019>026-033>040-048>060-102>105-312200-
NORTHEAST KANSAS

CITY           SKY/WX    TMP DP  RH WIND       PRES   REMARKS
CONCORDIA      SUNNY     45  15  30 CALM      30.46F
EMPORIA        SUNNY     47  15  27 NE12      30.44F
LAWRENCE       SUNNY     47  18  31 N12       30.46F
MANHATTAN      SUNNY     48  17  29 NE10      30.47F
MARYSVILLE     SUNNY     45  18  33 NE7       30.47F
OLATHE IND     SUNNY     45  17  32 N16       30.45F
OLATHE EXE     SUNNY     46  15  28 MISG      30.43F
SALINA         SUNNY     47  16  29 NE13      30.47F
TOPEKA BILLARD SUNNY     47  19  33 N9G22     30.47F
TOPEKA FORBES  SUNNY     47  19  33 N9        30.46F
$$



USA.gov is the U.S. government's official web portal to all federal, state and local government web resources and services.